Sturgis, MI

9:50 AM EDT on September 28, 2016 (GMT -0400)
Kirsch Municipal

Weather History for KIRS - January, 2013

Change the Weather History Date:

Thursday, January 31, 2013

  Actual Average (KHAI) Record (KHAI)
Temperature  
Mean Temperature 20 °F -  
Max Temperature 28 °F 31 °F 53 °F (2012)
Min Temperature 12 °F 16 °F -6 °F (1971)
Degree Days  
Heating Degree Days 45    
Moisture  
Dew Point 14 °F    
Average Humidity 84    
Maximum Humidity 93    
Minimum Humidity 68    
Precipitation  
Precipitation 0.00 in - - ()
Sea Level Pressure  
Sea Level Pressure 29.71 in    
Wind  
Wind Speed 17 mph (West)    
Max Wind Speed 23 mph    
Max Gust Speed 39 mph    
Visibility 4 miles    
Events Snow    
Averages and records for this station are not official NWS values.
T = Trace of Precipitation, MM = Missing Value Source: NWS Daily Summary

Daily Weather History Graph

Daily Weather History Graph

Search for Another Location

Airport or City:

Trip Planner

Search our weather history database for the weather conditions in past years. The results will help you decide how hot, cold, wet, or windy it might be!

Date:

Astronomy

Jan. 31, 2013 Rise Set
Actual Time 7:54 AM EST 5:56 PM EST
Civil Twilight 7:25 AM EST 6:25 PM EST
Nautical Twilight 6:51 AM EST 6:59 PM EST
Astronomical Twilight 6:19 AM EST 7:31 PM EST
Moon 11:03 PM EST (1/31) 9:49 AM EST (1/31)
Length of Visible Light 11h 00m
Length of Day
10h 01m
Waning Gibbous, 80% of the Moon is Illuminated
Jan 31
Waning Gibbous
Feb 3
Last Quarter
Feb 10
New
Feb 17
First Quarter
Feb 25
Full

Hourly Weather History & Observations

Time (EST) Temp. Windchill Dew Point Humidity Pressure Visibility Wind Dir Wind Speed Gust Speed Precip Events Conditions
12:14 AM 28.4 °F 15.8 °F 24.8 °F 86% 29.41 in 5.0 mi West 18.4 mph 27.6 mph N/A Snow Light Snow
12:35 AM 26.6 °F 12.7 °F 24.8 °F 93% 29.43 in 1.5 mi West 20.7 mph 31.1 mph N/A Snow Light Snow
12:55 AM 26.6 °F 12.0 °F 21.2 °F 80% 29.44 in 7.0 mi West 23.0 mph 34.5 mph N/A Snow Light Snow
1:14 AM 26.6 °F 12.7 °F 21.2 °F 80% 29.46 in 10.0 mi WNW 20.7 mph 39.1 mph N/A   Overcast
1:35 AM 24.8 °F 10.0 °F 21.2 °F 86% 29.47 in 5.0 mi West 21.9 mph 35.7 mph N/A Snow Light Snow
1:55 AM 24.8 °F 10.7 °F 19.4 °F 80% 29.48 in 7.0 mi West 19.6 mph 33.4 mph N/A Snow Light Snow
2:14 AM 24.8 °F 10.3 °F 19.4 °F 80% 29.49 in 3.0 mi West 20.7 mph 29.9 mph N/A Snow Light Snow
2:35 AM 24.8 °F 10.7 °F 19.4 °F 80% 29.51 in 7.0 mi West 19.6 mph 26.5 mph N/A Snow Light Snow
2:55 AM 23.0 °F 8.7 °F 17.6 °F 80% 29.52 in 10.0 mi West 18.4 mph 28.8 mph N/A Snow Light Snow
3:14 AM 23.0 °F 8.3 °F 17.6 °F 80% 29.53 in 7.0 mi West 19.6 mph 33.4 mph N/A Snow Light Snow
3:35 AM 21.2 °F 4.9 °F 17.6 °F 86% 29.54 in 5.0 mi West 23.0 mph 33.4 mph N/A Snow Light Snow
3:54 AM 21.2 °F 6.0 °F 17.6 °F 86% 29.54 in 3.0 mi West 19.6 mph 25.3 mph N/A Snow Light Snow
4:15 AM 21.2 °F 8.3 °F 17.6 °F 86% 29.55 in 1.0 mi WNW 13.8 mph 21.9 mph N/A Snow Snow
4:35 AM 21.2 °F 7.3 °F 17.6 °F 86% 29.56 in 7.0 mi West 16.1 mph 31.1 mph N/A Snow Light Snow
4:54 AM 21.2 °F 6.8 °F 17.6 °F 86% 29.57 in 7.0 mi West 17.3 mph 24.2 mph N/A Snow Light Snow
5:15 AM 19.4 °F 4.5 °F 17.6 °F 93% 29.58 in 2.5 mi West 17.3 mph 24.2 mph N/A Snow Light Snow
5:35 AM 19.4 °F 4.5 °F 17.6 °F 93% 29.59 in 5.0 mi West 17.3 mph 23.0 mph N/A Snow Light Snow
5:55 AM 19.4 °F 7.2 °F 17.6 °F 93% 29.59 in 1.0 mi West 11.5 mph 21.9 mph N/A Snow Snow
6:15 AM 19.4 °F 3.6 °F 17.6 °F 93% 29.60 in 1.8 mi West 19.6 mph 25.3 mph N/A Snow Light Snow
6:35 AM 19.4 °F 6.0 °F 17.6 °F 93% 29.60 in 2.0 mi WSW 13.8 mph 18.4 mph N/A Snow Light Snow
6:55 AM 19.4 °F 5.5 °F 17.6 °F 93% 29.61 in 4.0 mi West 15.0 mph - N/A Snow Light Snow
7:15 AM 17.6 °F 2.2 °F 15.8 °F 93% 29.63 in 1.0 mi West 17.3 mph - N/A Snow Snow
7:35 AM 17.6 °F 2.7 °F 15.8 °F 93% 29.63 in 2.0 mi WSW 16.1 mph 25.3 mph N/A Snow Light Snow
7:55 AM 17.6 °F 2.2 °F 14.0 °F 86% 29.64 in 2.5 mi West 17.3 mph 28.8 mph N/A Snow Light Snow
8:15 AM 17.6 °F 2.2 °F 14.0 °F 86% 29.65 in 2.5 mi West 17.3 mph 24.2 mph N/A Snow Light Snow
8:34 AM 17.6 °F 2.7 °F 14.0 °F 86% 29.67 in 2.5 mi West 16.1 mph 21.9 mph N/A Snow Light Snow
8:55 AM 17.6 °F 3.7 °F 14.0 °F 86% 29.68 in 2.0 mi West 13.8 mph - N/A Snow Light Snow
9:15 AM 17.6 °F 2.2 °F 12.2 °F 79% 29.69 in 2.0 mi West 17.3 mph 26.5 mph N/A Snow Light Snow
9:35 AM 17.6 °F 5.0 °F 14.0 °F 86% 29.70 in 1.8 mi West 11.5 mph 21.9 mph N/A Snow Light Snow
9:55 AM 17.6 °F 3.7 °F 14.0 °F 86% 29.71 in 1.8 mi West 13.8 mph - N/A Snow Light Snow
10:35 AM 17.6 °F 3.7 °F 15.8 °F 93% 29.73 in 0.8 mi West 13.8 mph 20.7 mph N/A Snow Light Snow
10:55 AM 17.6 °F 2.7 °F 14.0 °F 86% 29.73 in 2.0 mi West 16.1 mph 21.9 mph N/A Snow Light Snow
11:14 AM 17.6 °F 2.2 °F 15.8 °F 93% 29.74 in 1.2 mi West 17.3 mph 24.2 mph N/A Snow Light Snow
11:35 AM 17.6 °F 1.3 °F 14.0 °F 86% 29.75 in 2.0 mi West 19.6 mph 26.5 mph N/A Snow Light Snow
12:00 PM 17.6 °F 2.7 °F 15.8 °F 93% 29.75 in 1.2 mi WSW 16.1 mph 19.6 mph N/A Snow Light Snow
12:14 PM 17.6 °F 1.7 °F 14.0 °F 86% 29.75 in 2.0 mi WSW 18.4 mph - N/A Snow Light Snow
12:35 PM 17.6 °F 1.3 °F 12.2 °F 79% 29.75 in 1.8 mi West 19.6 mph 27.6 mph N/A Snow Light Snow
12:55 PM 17.6 °F 2.7 °F 12.2 °F 79% 29.76 in 1.8 mi West 16.1 mph 23.0 mph N/A Snow Light Snow
1:15 PM 17.6 °F 2.7 °F 15.8 °F 93% 29.76 in 1.2 mi West 16.1 mph 20.7 mph N/A Snow Light Snow
1:35 PM 17.6 °F 4.3 °F 14.0 °F 86% 29.76 in 0.5 mi West 12.7 mph 20.7 mph N/A Snow Snow
1:54 PM 17.6 °F 3.7 °F 14.0 °F 86% 29.76 in 1.0 mi West 13.8 mph 20.7 mph N/A Snow Light Snow
2:15 PM 17.6 °F 1.3 °F 12.2 °F 79% 29.77 in 5.0 mi West 19.6 mph 26.5 mph N/A Snow Light Snow
2:35 PM 17.6 °F 1.7 °F 10.4 °F 73% 29.78 in 7.0 mi West 18.4 mph 25.3 mph N/A   Overcast
2:55 PM 17.6 °F 2.2 °F 10.4 °F 73% 29.78 in 7.0 mi West 17.3 mph 24.2 mph N/A   Overcast
3:15 PM 17.6 °F 5.7 °F 12.2 °F 79% 29.79 in 10.0 mi West 10.4 mph 21.9 mph N/A   Overcast
3:35 PM 17.6 °F 2.2 °F 10.4 °F 73% 29.79 in 10.0 mi West 17.3 mph 23.0 mph N/A   Overcast
3:55 PM 17.6 °F 2.2 °F 10.4 °F 73% 29.79 in 10.0 mi West 17.3 mph 26.5 mph N/A   Overcast
4:15 PM 17.6 °F 2.2 °F 8.6 °F 68% 29.80 in 10.0 mi West 17.3 mph 25.3 mph N/A   Overcast
4:35 PM 17.6 °F 5.0 °F 8.6 °F 68% 29.80 in 10.0 mi West 11.5 mph 21.9 mph N/A   Overcast
4:55 PM 15.8 °F -0.2 °F 8.6 °F 73% 29.81 in 10.0 mi West 17.3 mph 20.7 mph N/A   Overcast
5:15 PM 15.8 °F 0.9 °F 10.4 °F 79% 29.82 in 7.0 mi West 15.0 mph 20.7 mph N/A Snow Light Snow
5:34 PM 15.8 °F 2.1 °F 10.4 °F 79% 29.82 in 3.0 mi WSW 12.7 mph 23.0 mph N/A Snow Light Snow
5:55 PM 15.8 °F 0.9 °F 10.4 °F 79% 29.83 in 5.0 mi West 15.0 mph 21.9 mph N/A Snow Light Snow
6:14 PM 15.8 °F 2.1 °F 10.4 °F 79% 29.83 in 5.0 mi West 12.7 mph 17.3 mph N/A Snow Light Snow
6:35 PM 15.8 °F 1.4 °F 10.4 °F 79% 29.84 in 5.0 mi West 13.8 mph - N/A Snow Light Snow
6:55 PM 14.0 °F -0.8 °F 10.4 °F 86% 29.85 in 4.0 mi WSW 13.8 mph 17.3 mph N/A Snow Light Snow
7:13 PM 14.0 °F -0.2 °F 10.4 °F 86% 29.86 in 4.0 mi West 12.7 mph 21.9 mph N/A Snow Light Snow
7:35 PM 14.0 °F -2.0 °F 10.4 °F 86% 29.87 in 3.0 mi West 16.1 mph 20.7 mph N/A Snow Light Snow
7:55 PM 14.0 °F -0.8 °F 10.4 °F 86% 29.88 in 5.0 mi West 13.8 mph - N/A Snow Light Snow
8:15 PM 14.0 °F 1.2 °F 10.4 °F 86% 29.89 in 4.0 mi West 10.4 mph 20.7 mph N/A Snow Light Snow
8:35 PM 14.0 °F -1.4 °F 10.4 °F 86% 29.89 in 5.0 mi West 15.0 mph 23.0 mph N/A Snow Light Snow
9:15 PM 12.2 °F -5.3 °F 10.4 °F 92% 29.90 in 3.0 mi West 18.4 mph 24.2 mph N/A Snow Light Snow
9:34 PM 12.2 °F -3.1 °F 8.6 °F 85% 29.90 in 3.0 mi West 13.8 mph 23.0 mph N/A Snow Light Snow
10:14 PM 12.2 °F -2.5 °F 8.6 °F 85% 29.92 in 3.0 mi West 12.7 mph 16.1 mph N/A Snow Light Snow
10:35 PM 12.2 °F -2.5 °F 10.4 °F 92% 29.92 in 2.0 mi West 12.7 mph 19.6 mph N/A Snow Light Snow
11:14 PM 12.2 °F -3.1 °F 10.4 °F 92% 29.92 in 3.0 mi West 13.8 mph - N/A Snow Light Snow
11:35 PM 12.2 °F -1.8 °F 8.6 °F 85% 29.93 in 3.0 mi West 11.5 mph 16.1 mph N/A Snow Light Snow